Tiempo cada hora Barsuki

Hoy, 7 Marzo, Domingo

Tiempo Temperatura Precipitaciones Viento Presión Humedad
00:00 -15°C° 0 mm 3 mps 745 mmHg 91%
01:00 -16°C° 0 mm 4 mps 744 mmHg 91%
02:00 -16°C° 0 mm 4 mps 743 mmHg 91%
03:00 -15°C° 0 mm 4 mps 743 mmHg 92%
04:00 -14°C° 0 mm 5 mps 742 mmHg 91%
05:00 -15°C° 0 mm 6 mps 741 mmHg 90%
06:00 -14°C° 0 mm 7 mps 740 mmHg 88%
07:00 -13°C° 0 mm 8 mps 739 mmHg 88%
08:00 -12°C° 0 mm 9 mps 738 mmHg 88%
09:00 -12°C° 0 mm 10 mps 737 mmHg 88%
10:00 -10°C° 0.3 mm 10 mps 736 mmHg 89%
11:00 -9°C° 0.3 mm 10 mps 735 mmHg 90%
12:00 -9°C° 0.3 mm 11 mps 733 mmHg 91%
13:00 -8°C° 0.4 mm 10 mps 733 mmHg 92%
14:00 -7°C° 0.4 mm 10 mps 732 mmHg 93%
15:00 -7°C° 0.4 mm 10 mps 731 mmHg 93%
16:00 -7°C° 0.5 mm 10 mps 730 mmHg 93%
17:00 -7°C° 0.5 mm 10 mps 730 mmHg 93%
18:00 -5°C° 0.5 mm 10 mps 729 mmHg 92%
19:00 -6°C° 0.8 mm 9 mps 730 mmHg 91%
20:00 -7°C° 0.8 mm 8 mps 730 mmHg 89%
21:00 -8°C° 0.8 mm 6 mps 730 mmHg 88%
22:00 -9°C° 0 mm 6 mps 731 mmHg 86%
23:00 -10°C° 0 mm 6 mps 731 mmHg 85%

Mañana, 8 Marzo, Lunes

Tiempo Temperatura Precipitaciones Viento Presión Humedad
00:00 -12°C° 0 mm 5 mps 732 mmHg 83%
01:00 -12°C° 0 mm 5 mps 732 mmHg 84%
02:00 -12°C° 0 mm 5 mps 732 mmHg 85%
03:00 -12°C° 0 mm 5 mps 733 mmHg 86%
04:00 -12°C° 0 mm 5 mps 733 mmHg 87%
05:00 -12°C° 0 mm 5 mps 732 mmHg 88%
06:00 -12°C° 0 mm 5 mps 732 mmHg 90%
07:00 -12°C° 0 mm 5 mps 732 mmHg 90%
08:00 -11°C° 0 mm 6 mps 733 mmHg 90%
09:00 -11°C° 0 mm 6 mps 733 mmHg 91%
10:00 -11°C° 0 mm 7 mps 733 mmHg 88%
11:00 -11°C° 0 mm 7 mps 733 mmHg 86%
12:00 -9°C° 0 mm 7 mps 734 mmHg 83%
13:00 -9°C° 0 mm 7 mps 734 mmHg 82%
14:00 -9°C° 0 mm 6 mps 735 mmHg 81%
15:00 -9°C° 0 mm 6 mps 735 mmHg 80%
16:00 -10°C° 0 mm 5 mps 736 mmHg 82%
17:00 -11°C° 0 mm 4 mps 737 mmHg 84%
18:00 -12°C° 0 mm 3 mps 737 mmHg 87%
19:00 -13°C° 0 mm 3 mps 738 mmHg 88%
20:00 -14°C° 0 mm 3 mps 739 mmHg 89%
21:00 -14°C° 0 mm 2 mps 739 mmHg 90%
22:00 -14°C° 0 mm 2 mps 740 mmHg 91%
23:00 -15°C° 0 mm 2 mps 740 mmHg 92%

Pasado mañana, 9 Marzo, Martes

Tiempo Temperatura Precipitaciones Viento Presión Humedad
00:00 -16°C° 0 mm 2 mps 740 mmHg 93%
01:00 -16°C° 0 mm 2 mps 741 mmHg 93%
02:00 -16°C° 0 mm 2 mps 741 mmHg 94%
03:00 -16°C° 0 mm 2 mps 741 mmHg 95%
04:00 -16°C° 0 mm 2 mps 742 mmHg 95%
05:00 -15°C° 0 mm 2 mps 742 mmHg 95%
06:00 -15°C° 0 mm 2 mps 742 mmHg 96%
07:00 -15°C° 0 mm 2 mps 743 mmHg 95%
08:00 -15°C° 0 mm 3 mps 743 mmHg 94%
09:00 -15°C° 0 mm 3 mps 744 mmHg 93%
10:00 -15°C° 0 mm 3 mps 744 mmHg 91%
11:00 -14°C° 0 mm 3 mps 744 mmHg 90%
12:00 -14°C° 0 mm 3 mps 745 mmHg 88%
13:00 -14°C° 0 mm 3 mps 745 mmHg 86%
14:00 -14°C° 0 mm 4 mps 745 mmHg 85%
15:00 -14°C° 0 mm 4 mps 746 mmHg 84%
16:00 -14°C° 0 mm 3 mps 746 mmHg 86%
17:00 -14°C° 0 mm 3 mps 746 mmHg 88%
18:00 -15°C° 0 mm 3 mps 746 mmHg 91%
19:00 -16°C° 0 mm 3 mps 747 mmHg 91%
20:00 -18°C° 0 mm 3 mps 747 mmHg 92%
21:00 -18°C° 0 mm 2 mps 748 mmHg 92%
22:00 -19°C° 0 mm 2 mps 748 mmHg 93%
23:00 -20°C° 0 mm 2 mps 749 mmHg 95%

10 Marzo, Miércoles

Tiempo Temperatura Precipitaciones Viento Presión Humedad
00:00 -21°C° 0 mm 2 mps 749 mmHg 96%
01:00 -21°C° 0 mm 2 mps 749 mmHg 97%
02:00 -23°C° 0 mm 2 mps 750 mmHg 97%
03:00 -24°C° 0 mm 2 mps 750 mmHg 98%
04:00 -25°C° 0 mm 2 mps 750 mmHg 97%
05:00 -23°C° 0 mm 1 mps 750 mmHg 97%
06:00 -23°C° 0 mm 1 mps 751 mmHg 96%
07:00 -22°C° 0 mm 1 mps 751 mmHg 95%
08:00 -21°C° 0 mm 1 mps 751 mmHg 93%
09:00 -20°C° 0 mm 1 mps 752 mmHg 92%
10:00 -19°C° 0 mm 1 mps 752 mmHg 88%
11:00 -17°C° 0 mm 1 mps 752 mmHg 83%
12:00 -16°C° 0 mm 1 mps 753 mmHg 79%
13:00 -15°C° 0 mm 1 mps 752 mmHg 77%
14:00 -14°C° 0 mm 1 mps 752 mmHg 75%
15:00 -13°C° 0 mm 1 mps 752 mmHg 73%
16:00 -14°C° 0 mm 1 mps 752 mmHg 77%
17:00 -15°C° 0 mm 1 mps 752 mmHg 81%
18:00 -15°C° 0 mm 1 mps 752 mmHg 85%
19:00 -16°C° 0 mm 1 mps 752 mmHg 86%
20:00 -17°C° 0 mm 1 mps 753 mmHg 87%
21:00 -18°C° 0 mm 1 mps 753 mmHg 88%
22:00 -20°C° 0 mm 2 mps 753 mmHg 87%
23:00 -21°C° 0 mm 2 mps 753 mmHg 87%

11 Marzo, Jueves

Tiempo Temperatura Precipitaciones Viento Presión Humedad
00:00 -21°C° 0 mm 2 mps 753 mmHg 87%
01:00 -21°C° 0 mm 2 mps 753 mmHg 88%
02:00 -22°C° 0 mm 3 mps 753 mmHg 89%
03:00 -22°C° 0 mm 3 mps 753 mmHg 90%
04:00 -21°C° 0.1 mm 3 mps 753 mmHg 92%
05:00 -21°C° 0.1 mm 3 mps 753 mmHg 93%
06:00 -19°C° 0.1 mm 3 mps 753 mmHg 95%
07:00 -19°C° 0.1 mm 4 mps 753 mmHg 95%
08:00 -19°C° 0.1 mm 4 mps 753 mmHg 94%
09:00 -18°C° 0.1 mm 4 mps 753 mmHg 94%
10:00 -17°C° 0 mm 4 mps 753 mmHg 93%
11:00 -15°C° 0 mm 4 mps 753 mmHg 93%
12:00 -14°C° 0 mm 4 mps 752 mmHg 93%
13:00 -13°C° 0 mm 5 mps 752 mmHg 91%
14:00 -12°C° 0 mm 5 mps 752 mmHg 90%
15:00 -11°C° 0 mm 5 mps 752 mmHg 89%
16:00 -12°C° 0 mm 5 mps 751 mmHg 90%
17:00 -12°C° 0 mm 4 mps 751 mmHg 90%
18:00 -12°C° 0 mm 4 mps 750 mmHg 91%
19:00 -14°C° 0 mm 4 mps 750 mmHg 91%
20:00 -14°C° 0 mm 5 mps 750 mmHg 92%
21:00 -15°C° 0 mm 5 mps 750 mmHg 93%
22:00 -15°C° 0 mm 5 mps 750 mmHg 90%
23:00 -15°C° 0 mm 5 mps 749 mmHg 88%

12 Marzo, Viernes

Tiempo Temperatura Precipitaciones Viento Presión Humedad
00:00 -16°C° 0 mm 6 mps 749 mmHg 86%
01:00 -15°C° 0 mm 6 mps 748 mmHg 83%
02:00 -14°C° 0 mm 7 mps 747 mmHg 81%
03:00 -13°C° 0 mm 7 mps 747 mmHg 79%
04:00 -13°C° 0 mm 8 mps 746 mmHg 78%
05:00 -12°C° 0 mm 9 mps 745 mmHg 78%
06:00 -12°C° 0 mm 9 mps 744 mmHg 77%
07:00 -12°C° 0.1 mm 10 mps 743 mmHg 81%
08:00 -12°C° 0.1 mm 11 mps 742 mmHg 84%
09:00 -11°C° 0.1 mm 12 mps 741 mmHg 87%
10:00 -11°C° 1.2 mm 12 mps 740 mmHg 89%
11:00 -11°C° 1.2 mm 12 mps 739 mmHg 91%
12:00 -10°C° 1.2 mm 12 mps 739 mmHg 93%
13:00 -8°C° 1 mm 12 mps 738 mmHg 93%
14:00 -8°C° 1 mm 11 mps 737 mmHg 93%
15:00 -7°C° 1 mm 11 mps 737 mmHg 94%
16:00 -5°C° 0.4 mm 10 mps 736 mmHg 94%
17:00 -5°C° 0.4 mm 9 mps 736 mmHg 95%
18:00 -4°C° 0.4 mm 8 mps 735 mmHg 95%
19:00 -2°C° 0.4 mm 7 mps 735 mmHg 96%
20:00 -2°C° 0.4 mm 6 mps 735 mmHg 97%
21:00 -1°C° 0.4 mm 5 mps 735 mmHg 98%
22:00 -1°C° 0.1 mm 5 mps 735 mmHg 98%
23:00 -1°C° 0.1 mm 5 mps 735 mmHg 98%
Mostrar más

Necesitamos Su Consentimiento

Meteoprog y nuestros Proveedores de Servicios pueden almacenar y acceder a sus datos personales como cookies, identificadores de dispositivo u otras tecnologías similares de su dispositivo y procesar dichos datos para personalizar contenido y anuncios, además de ofrecer funciones de redes sociales y analizar el tráfico.

  • Almacenar y/o acceder a información en su dispositivo

    Se puede almacenar o acceder a cookies, identificadores de dispositivo u otra información de su dispositivo para los fines anteriormente indicados.

  • Anuncios y contenido personalizados, medición de anuncios y contenido, percepciones del público, y desarrollo de productos

    Los anuncios y el contenido pueden personalizarse en base a su perfil. Se pueden añadir más datos para personalizar mejor los anuncios y contenidos. Se puede medir el rendimiento de los anuncios y contenidos. Se puede obtener la percepción sobre el público que ha visto los anuncios y contenidos. Dichos datos pueden usarse para desarrollar o mejorar la experiencia del usuario, sistemas y software.

Al hacer clic en ‘Estoy De Acuerdo’ usted permitirá el uso de las cookies, identificadores de dispositivo, balizas web u otras tecnologías similares indicadas. Su configuración puede cambiarse desde el navegador de su dispositivo.

Para ciertos fines, los intereses legítimos pueden ser considerados por encima del consentimiento. Puede leer más sobre ello en nuestra Política de Privacidad y Cookies.